| time (UTC) | temp C | wind direction | speed KPH | gust KPH | rain 1hr cm | rain 24hr cm | rain mn cm | humidity % | barometer mb |
| 20260510000103 | 14 | 125 | 0.0 | 0.0 | 0.00 | 0.00 | 0.00 | 70 | 1030.2 |
| 20260509234556 | 12 | 125 | 0.0 | 0.0 | 0.00 | 0.00 | 0.00 | 84 | 1030.3 |
| 20260509233050 | 10 | 125 | 0.0 | 0.0 | 0.00 | 0.00 | 0.00 | 90 | 1030.3 |
| 20260509231547 | 9 | 125 | 0.0 | 0.0 | 0.00 | 0.00 | 0.00 | 91 | 1030.5 |
| 20260509230043 | 8 | 125 | 0.0 | 0.0 | 0.00 | 0.00 | 0.00 | 91 | 1030.5 |
| 20260509224538 | 6 | 125 | 0.0 | 0.0 | 0.00 | 0.00 | 0.00 | 91 | 1030.6 |
| 20260509223035 | 5 | 125 | 0.0 | 0.0 | 0.00 | 0.00 | 0.00 | 91 | 1030.6 |
| 20260509221533 | 3 | 127 | 0.0 | 0.0 | 0.00 | 0.00 | 0.00 | 91 | 1030.5 |
| 20260509220030 | 2 | 127 | 0.0 | 0.0 | 0.00 | 0.00 | 0.00 | 91 | 1030.4 |
| 20260509214527 | 1 | 127 | 0.0 | 0.0 | 0.00 | 0.00 | 0.00 | 91 | 1030.4 |
| 20260509213024 | 1 | 127 | 0.0 | 0.0 | 0.00 | 0.00 | 0.00 | 91 | 1030.3 |
| 20260509211522 | 1 | 127 | 0.0 | 0.0 | 0.00 | 0.00 | 0.00 | 91 | 1030.1 |
| 20260509210021 | 1 | 127 | 0.0 | 0.0 | 0.00 | 0.00 | 0.00 | 91 | 1029.7 |
| 20260509204520 | 1 | 127 | 0.0 | 0.0 | 0.00 | 0.00 | 0.00 | 91 | 1029.6 |
| 20260509203015 | 1 | 127 | 0.0 | 0.0 | 0.00 | 0.00 | 0.00 | 91 | 1029.4 |
| 20260509201513 | 1 | 127 | 0.0 | 0.0 | 0.00 | 0.00 | 0.00 | 91 | 1029.2 |
| 20260509200012 | 1 | 127 | 0.0 | 0.0 | 0.00 | 0.00 | 0.00 | 91 | 1029.1 |
| 20260509194509 | 1 | 127 | 0.0 | 0.0 | 0.00 | 0.00 | 0.00 | 91 | 1028.9 |
| 20260509193007 | 1 | 127 | 0.0 | 0.0 | 0.00 | 0.00 | 0.00 | 91 | 1028.7 |
| 20260509191510 | 1 | 127 | 0.0 | 0.0 | 0.00 | 0.00 | 0.00 | 91 | 1028.5 |
| 20260509190011 | 1 | 127 | 0.0 | 0.0 | 0.00 | 0.00 | 0.00 | 91 | 1028.3 |
| 20260509184502 | 1 | 127 | 0.0 | 0.0 | 0.00 | 0.00 | 0.00 | 91 | 1028.1 |
| 20260509183104 | 1 | 127 | 0.0 | 0.0 | 0.00 | 0.00 | 0.00 | 91 | 1028.0 |
| 20260509181602 | 1 | 127 | 0.0 | 0.0 | 0.00 | 0.00 | 0.00 | 91 | 1027.8 |
| 20260509180100 | 1 | 127 | 0.0 | 0.0 | 0.00 | 0.00 | 0.00 | 91 | 1027.7 |
| 20260509174554 | 1 | 127 | 0.0 | 0.0 | 0.00 | 0.00 | 0.00 | 91 | 1027.6 |
| 20260509173053 | 1 | 127 | 0.0 | 0.0 | 0.00 | 0.00 | 0.00 | 91 | 1027.5 |
| 20260509171553 | 1 | 127 | 0.0 | 0.0 | 0.00 | 0.00 | 0.00 | 91 | 1027.4 |
| 20260509170052 | 2 | 127 | 0.0 | 0.0 | 0.00 | 0.00 | 0.00 | 91 | 1027.4 |
| 20260509164549 | 2 | 127 | 0.0 | 0.0 | 0.00 | 0.00 | 0.00 | 91 | 1027.5 |
| 20260509163048 | 2 | 127 | 0.0 | 0.0 | 0.00 | 0.00 | 0.00 | 91 | 1027.5 |
| 20260509161547 | 2 | 127 | 0.0 | 0.0 | 0.00 | 0.00 | 0.00 | 91 | 1027.4 |
| 20260509160046 | 2 | 127 | 0.0 | 0.0 | 0.00 | 0.00 | 0.00 | 91 | 1027.3 |
| 20260509154546 | 2 | 127 | 0.0 | 0.0 | 0.00 | 0.00 | 0.00 | 91 | 1027.4 |
| 20260509153057 | 2 | 127 | 0.0 | 0.0 | 0.00 | 0.00 | 0.00 | 91 | 1027.5 |
| 20260509151545 | 2 | 127 | 0.0 | 0.0 | 0.00 | 0.00 | 0.00 | 91 | 1027.5 |
| 20260509150040 | 3 | 127 | 0.0 | 0.0 | 0.00 | 0.00 | 0.00 | 91 | 1027.5 |
| 20260509144536 | 3 | 127 | 0.0 | 0.0 | 0.00 | 0.00 | 0.00 | 91 | 1027.4 |
| 20260509143035 | 3 | 127 | 0.0 | 0.0 | 0.00 | 0.00 | 0.00 | 91 | 1027.3 |
| 20260509141533 | 4 | 127 | 0.0 | 0.0 | 0.00 | 0.00 | 0.00 | 91 | 1027.4 |
| 20260509140039 | 3 | 127 | 0.0 | 0.0 | 0.00 | 0.00 | 0.00 | 91 | 1027.4 |
| 20260509134531 | 3 | 127 | 0.0 | 0.0 | 0.00 | 0.00 | 0.00 | 91 | 1027.4 |
| 20260509133030 | 4 | 127 | 0.0 | 0.0 | 0.00 | 0.00 | 0.00 | 91 | 1027.5 |
| 20260509131533 | 3 | 127 | 0.0 | 0.0 | 0.00 | 0.00 | 0.00 | 91 | 1027.4 |
| 20260509130024 | 3 | 127 | 0.0 | 0.0 | 0.00 | 0.00 | 0.00 | 90 | 1027.4 |
| 20260509124523 | 3 | 127 | 0.0 | 0.0 | 0.00 | 0.00 | 0.00 | 90 | 1027.4 |
| 20260509123022 | 3 | 127 | 0.0 | 0.0 | 0.00 | 0.00 | 0.00 | 90 | 1027.5 |
| 20260509121525 | 4 | 127 | 0.0 | 0.0 | 0.00 | 0.00 | 0.00 | 90 | 1027.5 |
| 20260509120025 | 4 | 127 | 0.0 | 0.0 | 0.00 | 0.00 | 0.00 | 89 | 1027.5 |
| 20260509114520 | 5 | 127 | 0.0 | 0.0 | 0.00 | 0.00 | 0.00 | 89 | 1027.4 |
| 20260509113018 | 5 | 127 | 0.0 | 0.0 | 0.00 | 0.00 | 0.00 | 89 | 1027.2 |
| 20260509111517 | 5 | 127 | 0.0 | 0.0 | 0.00 | 0.00 | 0.00 | 88 | 1027.0 |
| 20260509110016 | 6 | 127 | 0.0 | 0.0 | 0.00 | 0.00 | 0.00 | 88 | 1026.9 |
| 20260509104514 | 6 | 127 | 0.0 | 0.0 | 0.00 | 0.00 | 0.00 | 89 | 1026.7 |
| 20260509103013 | 6 | 127 | 0.0 | 0.0 | 0.00 | 0.00 | 0.00 | 89 | 1026.6 |
| 20260509101514 | 6 | 127 | 0.0 | 0.0 | 0.00 | 0.00 | 0.00 | 89 | 1026.5 |
| 20260509100011 | 6 | 127 | 0.0 | 0.0 | 0.00 | 0.00 | 0.00 | 89 | 1026.3 |
| 20260509094511 | 6 | 127 | 0.0 | 0.0 | 0.00 | 0.00 | 0.00 | 88 | 1026.4 |
| 20260509093008 | 6 | 127 | 0.0 | 0.0 | 0.00 | 0.00 | 0.00 | 87 | 1026.2 |
| 20260509091508 | 6 | 127 | 0.0 | 0.0 | 0.00 | 0.00 | 0.00 | 86 | 1026.1 |
| 20260509090006 | 7 | 127 | 0.0 | 0.0 | 0.00 | 0.00 | 0.00 | 85 | 1025.9 |
| 20260509084509 | 7 | 127 | 0.0 | 0.0 | 0.00 | 0.00 | 0.00 | 83 | 1025.7 |
| 20260509083005 | 8 | 127 | 0.0 | 0.0 | 0.00 | 0.00 | 0.00 | 82 | 1025.5 |
| 20260509081504 | 8 | 127 | 0.0 | 0.0 | 0.00 | 0.00 | 0.00 | 80 | 1025.1 |
| 20260509080003 | 9 | 127 | 0.0 | 0.0 | 0.00 | 0.00 | 0.00 | 78 | 1025.1 |
| 20260509074503 | 10 | 127 | 0.0 | 0.0 | 0.00 | 0.00 | 0.00 | 75 | 1024.7 |
| 20260509073011 | 11 | 127 | 0.0 | 0.0 | 0.00 | 0.00 | 0.00 | 73 | 1024.5 |
| 20260509071502 | 12 | 127 | 0.0 | 0.0 | 0.00 | 0.00 | 0.00 | 69 | 1024.1 |
| 20260509070002 | 13 | 127 | 0.0 | 0.0 | 0.00 | 0.00 | 0.00 | 64 | 1023.9 |
| 20260509064502 | 14 | 117 | 0.0 | 0.0 | 0.00 | 0.00 | 0.00 | 60 | 1023.8 |
| 20260509063000 | 15 | 169 | 0.0 | 0.0 | 0.00 | 0.00 | 0.00 | 56 | 1023.6 |
| 20260509061603 | 16 | 169 | 0.0 | 0.0 | 0.00 | 0.00 | 0.00 | 52 | 1023.6 |
| 20260509060106 | 18 | 165 | 0.0 | 0.0 | 0.00 | 0.00 | 0.00 | 46 | 1023.6 |
| 20260509054613 | 19 | 268 | 0.0 | 0.0 | 0.00 | 0.00 | 0.00 | 45 | 1023.5 |
| 20260509053104 | 20 | 182 | 0.0 | 0.0 | 0.00 | 0.00 | 0.00 | 45 | 1023.4 |
| 20260509051558 | 20 | 165 | 0.0 | 0.0 | 0.00 | 0.00 | 0.00 | 46 | 1023.2 |
| 20260509050059 | 20 | 165 | 0.0 | 0.0 | 0.00 | 0.00 | 0.00 | 45 | 1023.3 |
| 20260509044557 | 21 | 219 | 0.0 | 0.0 | 0.00 | 0.00 | 0.00 | 43 | 1023.2 |
| 20260509043054 | 20 | 154 | 0.0 | 0.0 | 0.00 | 0.00 | 0.00 | 44 | 1023.2 |
| 20260509041556 | 20 | 163 | 0.0 | 0.0 | 0.00 | 0.00 | 0.00 | 45 | 1023.2 |
| 20260509040121 | 20 | 145 | 0.0 | 0.0 | 0.00 | 0.00 | 0.00 | 44 | 1023.1 |
| 20260509034556 | 20 | 185 | 0.0 | 0.0 | 0.00 | 0.00 | 0.00 | 44 | 1023.3 |
| 20260509033051 | 19 | 152 | 0.0 | 0.0 | 0.00 | 0.00 | 0.00 | 45 | 1023.3 |
| 20260509031549 | 20 | 258 | 0.0 | 0.0 | 0.00 | 0.00 | 0.00 | 43 | 1023.4 |
| 20260509030048 | 19 | 173 | 0.0 | 0.0 | 0.00 | 0.00 | 0.00 | 46 | 1023.4 |
| 20260509024547 | 18 | 273 | 0.0 | 0.0 | 0.00 | 0.00 | 0.00 | 43 | 1023.7 |
| 20260509023044 | 18 | 250 | 0.0 | 0.0 | 0.00 | 0.00 | 0.00 | 45 | 1023.8 |
| 20260509021545 | 18 | 211 | 0.0 | 0.0 | 0.00 | 0.00 | 0.00 | 46 | 1024.1 |
| 20260509020041 | 18 | 180 | 0.0 | 0.0 | 0.00 | 0.00 | 0.00 | 48 | 1024.5 |
| 20260509014536 | 17 | 212 | 0.0 | 0.0 | 0.00 | 0.00 | 0.00 | 49 | 1024.7 |
| 20260509013035 | 17 | 170 | 0.0 | 0.0 | 0.00 | 0.00 | 0.00 | 52 | 1024.9 |
| 20260509011529 | 16 | 123 | 0.0 | 0.0 | 0.00 | 0.00 | 0.00 | 54 | 1024.9 |
| 20260509010034 | 16 | 169 | 0.0 | 0.0 | 0.00 | 0.00 | 0.00 | 56 | 1025.0 |
| 20260509004521 | 15 | 169 | 0.0 | 0.0 | 0.00 | 0.00 | 0.00 | 58 | 1025.1 |
| 20260509003021 | 14 | 223 | 0.0 | 0.0 | 0.00 | 0.00 | 0.00 | 62 | 1025.2 |
| 20260509001513 | 13 | 148 | 0.0 | 0.0 | 0.00 | 0.00 | 0.00 | 65 | 1025.3 |